DAL1488 KRDU-KIAD

Flight info

Callsign DAL1488
Flight time N/A
Altitude 27000
Route OXFRD5 CARML DCT DORRN CAVLR6
Aircraft A21N/M-V/N

Departure

Time 2026-05-07 01:00
Airport Raleigh-Durham International Airport (KRDU)

Arrival

Time N/A
Airport Washington Dulles International Airport (KIAD)
Time Latitude Longitude Altitude Speed Heading
2026-05-07 00:26 35.87553 -78.79663 415 ft 0 kts 134°
2026-05-07 00:44 35.87565 -78.79678 419 ft 3 kts 134°
2026-05-07 00:44 35.87579 -78.79696 414 ft 3 kts 121°
2026-05-07 00:44 35.87582 -78.79724 415 ft 3 kts 62°
2026-05-07 00:44 35.87579 -78.79731 418 ft 0 kts 43°
2026-05-07 00:45 35.87599 -78.79709 424 ft 11 kts 41°
2026-05-07 00:45 35.87649 -78.79653 422 ft 8 kts 44°
2026-05-07 00:46 35.87658 -78.79642 420 ft 3 kts 44°
2026-05-07 00:46 35.87670 -78.79627 423 ft 0 kts 45°
2026-05-07 00:46 35.87675 -78.79622 430 ft 4 kts 45°
2026-05-07 00:47 35.87704 -78.79586 425 ft 0 kts 45°
2026-05-07 00:47 35.87804 -78.79459 422 ft 31 kts 46°
2026-05-07 00:48 35.87935 -78.79298 425 ft 26 kts 44°
2026-05-07 00:48 35.88070 -78.79131 424 ft 28 kts 45°
2026-05-07 00:48 35.88213 -78.78947 425 ft 31 kts 46°
2026-05-07 00:48 35.88366 -78.78760 419 ft 31 kts 44°
2026-05-07 00:49 35.88520 -78.78571 421 ft 31 kts 45°
2026-05-07 00:49 35.88681 -78.78372 428 ft 33 kts 45°
2026-05-07 00:49 35.88850 -78.78163 422 ft 35 kts 45°
2026-05-07 00:49 35.88990 -78.77939 422 ft 28 kts 72°
2026-05-07 00:50 35.89088 -78.77790 420 ft 18 kts 44°
2026-05-07 00:50 35.89122 -78.77749 417 ft 7 kts 44°
2026-05-07 00:50 35.89157 -78.77706 415 ft 0 kts 46°
2026-05-07 00:52 35.89162 -78.77700 417 ft 3 kts 47°
2026-05-07 00:53 35.89179 -78.77678 416 ft 5 kts 46°
2026-05-07 00:53 35.89213 -78.77652 421 ft 4 kts 11°
2026-05-07 00:53 35.89215 -78.77652 421 ft 0 kts
2026-05-07 00:53 35.89221 -78.77652 417 ft 5 kts
2026-05-07 00:54 35.89245 -78.77662 422 ft 3 kts 330°
2026-05-07 00:54 35.89253 -78.77670 427 ft 0 kts 318°
2026-05-07 00:56 35.89300 -78.77725 431 ft 0 kts 316°
2026-05-07 00:58 35.89302 -78.77727 431 ft 4 kts 315°
2026-05-07 00:58 35.89350 -78.77797 425 ft 12 kts 292°
2026-05-07 00:59 35.89323 -78.77883 419 ft 0 kts 224°
2026-05-07 00:59 35.89298 -78.77913 429 ft 28 kts 224°
2026-05-07 00:59 35.88930 -78.78364 423 ft 120 kts 225°
2026-05-07 01:00 35.88137 -78.79342 521 ft 189 kts 225°
2026-05-07 01:00 35.87209 -78.80496 1507 ft 186 kts 225°
2026-05-07 01:00 35.86297 -78.81619 2642 ft 191 kts 225°
2026-05-07 01:00 35.85296 -78.82866 3359 ft 217 kts 226°
2026-05-07 01:01 35.84197 -78.84236 4012 ft 218 kts 226°
2026-05-07 01:01 35.83174 -78.85537 4151 ft 224 kts 230°
2026-05-07 01:01 35.82218 -78.87242 4787 ft 254 kts 243°
2026-05-07 01:01 35.81804 -78.89369 5911 ft 262 kts 271°
2026-05-07 01:02 35.82239 -78.91568 7104 ft 268 kts 294°
2026-05-07 01:02 35.83128 -78.93607 8259 ft 273 kts 300°
2026-05-07 01:02 35.84103 -78.95644 9389 ft 278 kts 300°
2026-05-07 01:02 35.85091 -78.97689 10441 ft 287 kts 300°
2026-05-07 01:03 35.86298 -78.99777 11017 ft 313 kts 315°
2026-05-07 01:03 35.88173 -79.01269 11670 ft 331 kts 338°
2026-05-07 01:03 35.90451 -79.01828 12087 ft 338 kts 359°
2026-05-07 01:03 35.92769 -79.01381 12196 ft 339 kts 14°
2026-05-07 01:04 35.95044 -79.00569 12212 ft 341 kts 17°
2026-05-07 01:04 35.97238 -78.99465 12200 ft 337 kts 27°
2026-05-07 01:04 35.99217 -78.98104 12194 ft 315 kts 30°
2026-05-07 01:04 36.01078 -78.96748 12196 ft 308 kts 30°
2026-05-07 01:05 36.02925 -78.95395 12202 ft 311 kts 30°
2026-05-07 01:05 36.04812 -78.94018 12202 ft 318 kts 30°
2026-05-07 01:05 36.06079 -78.93096 12218 ft 319 kts 30°
2026-05-07 01:05 36.08004 -78.91696 12686 ft 323 kts 30°
2026-05-07 01:06 36.09945 -78.90286 13819 ft 323 kts 30°
2026-05-07 01:06 36.11878 -78.88883 15052 ft 323 kts 30°
2026-05-07 01:06 36.13827 -78.87468 16104 ft 327 kts 30°
2026-05-07 01:06 36.15807 -78.86049 17055 ft 331 kts 31°
2026-05-07 01:07 36.17721 -78.84418 17962 ft 337 kts 37°
2026-05-07 01:07 36.19571 -78.82610 18845 ft 341 kts 39°
2026-05-07 01:07 36.21370 -78.80645 19710 ft 346 kts 43°
2026-05-07 01:07 36.23105 -78.78549 20552 ft 351 kts 44°
2026-05-07 01:08 36.24854 -78.76411 21367 ft 356 kts 44°
2026-05-07 01:08 36.26626 -78.74243 22147 ft 360 kts 44°
2026-05-07 01:08 36.28418 -78.72050 22880 ft 365 kts 44°
2026-05-07 01:08 36.30234 -78.69830 23581 ft 369 kts 44°
2026-05-07 01:09 36.32071 -78.67584 24258 ft 373 kts 44°
2026-05-07 01:09 36.33929 -78.65313 24900 ft 377 kts 44°
2026-05-07 01:09 36.35805 -78.63023 25514 ft 381 kts 44°
2026-05-07 01:09 36.37914 -78.61032 26080 ft 384 kts 26°
2026-05-07 01:10 36.40388 -78.59743 26640 ft 388 kts 19°
2026-05-07 01:10 36.42917 -78.58693 26940 ft 389 kts 17°
2026-05-07 01:10 36.45508 -78.57707 26999 ft 390 kts 16°
2026-05-07 01:10 36.48116 -78.56748 27006 ft 396 kts 16°
2026-05-07 01:11 36.50815 -78.55769 27008 ft 412 kts 16°
2026-05-07 01:11 36.53590 -78.54769 27002 ft 417 kts 16°
2026-05-07 01:11 36.56381 -78.53764 27000 ft 419 kts 16°
2026-05-07 01:11 36.59181 -78.52757 27000 ft 419 kts 16°